Time,TemperatureF,DewpointF,PressureIn,WindDirection,WindDirectionDegrees,WindSpeedMPH,WindSpeedGustMPH,Humidity,HourlyPrecipIn,Conditions,Clouds,dailyrainin,SoftwareType,DateUTC
2013-09-05 00:12:00,66.0,58.0,30.06,NW,311,0.0,0.0,76,0.00,,,0.00,,2013-09-05 05:12:00,
2013-09-05 00:23:00,66.0,59.0,30.07,NW,311,0.0,0.0,77,0.00,,,0.00,,2013-09-05 05:23:00,
2013-09-05 00:43:00,66.0,59.0,30.07,NW,311,0.0,0.0,77,0.00,,,0.00,,2013-09-05 05:43:00,
2013-09-05 00:52:00,65.0,58.0,30.07,NW,311,0.0,0.0,78,0.00,,,0.00,,2013-09-05 05:52:00,
2013-09-05 01:12:00,65.0,58.0,30.07,NW,311,0.0,0.0,78,0.00,,,0.00,,2013-09-05 06:12:00,
2013-09-05 01:22:00,65.0,58.0,30.07,NW,311,0.0,0.0,79,0.00,,,0.00,,2013-09-05 06:22:00,
2013-09-05 01:42:00,65.0,58.0,30.07,NW,311,0.0,0.0,79,0.00,,,0.00,,2013-09-05 06:42:00,
2013-09-05 01:52:00,65.0,58.0,30.08,NW,311,0.0,0.0,79,0.00,,,0.00,,2013-09-05 06:52:00,
2013-09-05 02:12:00,64.0,58.0,30.08,NW,311,0.0,0.0,80,0.00,,,0.00,,2013-09-05 07:12:00,
2013-09-05 02:23:00,64.0,58.0,30.09,NW,311,0.0,0.0,80,0.00,,,0.00,,2013-09-05 07:23:00,
2013-09-05 02:42:00,64.0,58.0,30.09,NW,311,0.0,0.0,80,0.00,,,0.00,,2013-09-05 07:42:00,
2013-09-05 02:52:00,64.0,58.0,30.09,NW,311,0.0,0.0,81,0.00,,,0.00,,2013-09-05 07:52:00,
2013-09-05 03:12:00,64.0,58.0,30.08,NW,311,0.0,0.0,81,0.00,,,0.00,,2013-09-05 08:12:00,
2013-09-05 03:22:00,63.0,57.0,30.09,NW,311,0.0,0.0,82,0.00,,,0.00,,2013-09-05 08:22:00,
2013-09-05 03:42:00,63.0,57.0,30.09,NW,311,0.0,0.0,82,0.00,,,0.00,,2013-09-05 08:42:00,
2013-09-05 03:52:00,63.0,57.0,30.09,NW,311,0.0,0.0,82,0.00,,,0.00,,2013-09-05 08:52:00,
2013-09-05 04:11:00,63.0,57.0,30.09,NW,311,0.0,0.0,82,0.00,,,0.00,,2013-09-05 09:11:00,
2013-09-05 04:22:00,63.0,57.0,30.09,NW,311,0.0,0.0,82,0.00,,,0.00,,2013-09-05 09:22:00,
2013-09-05 04:43:00,63.0,58.0,30.09,NW,311,0.0,0.0,83,0.00,,,0.00,,2013-09-05 09:43:00,
2013-09-05 04:54:00,63.0,58.0,30.09,NW,311,0.0,0.0,83,0.00,,,0.00,,2013-09-05 09:54:00,
2013-09-05 05:12:00,63.0,58.0,30.09,NW,311,0.0,0.0,83,0.00,,,0.00,,2013-09-05 10:12:00,
2013-09-05 05:23:00,63.0,57.0,30.10,NW,311,0.0,0.0,82,0.00,,,0.00,,2013-09-05 10:23:00,
2013-09-05 05:43:00,63.0,58.0,30.10,NW,311,0.0,0.0,83,0.00,,,0.00,,2013-09-05 10:43:00,
2013-09-05 05:53:00,63.0,57.0,30.10,NW,311,0.0,0.0,82,0.00,,,0.00,,2013-09-05 10:53:00,
2013-09-05 06:12:00,63.0,57.0,30.10,NW,311,0.0,0.0,82,0.00,,,0.00,,2013-09-05 11:12:00,
2013-09-05 06:22:00,63.0,57.0,30.11,NW,311,0.0,0.0,82,0.00,,,0.00,,2013-09-05 11:22:00,
2013-09-05 06:42:00,64.0,58.0,30.11,NW,311,0.0,0.0,80,0.00,,,0.00,,2013-09-05 11:42:00,
2013-09-05 06:52:00,64.0,58.0,30.11,NW,311,0.0,0.0,80,0.00,,,0.00,,2013-09-05 11:52:00,
2013-09-05 07:12:00,64.0,58.0,30.12,NW,311,0.0,0.0,81,0.00,,,0.00,,2013-09-05 12:12:00,
2013-09-05 07:21:00,64.0,58.0,30.12,NW,311,0.0,0.0,82,0.00,,,0.00,,2013-09-05 12:21:00,
2013-09-05 07:42:00,64.0,58.0,30.12,NW,311,0.0,0.0,82,0.00,,,0.00,,2013-09-05 12:42:00,
2013-09-05 07:52:00,65.0,59.0,30.12,NW,311,0.0,0.0,82,0.00,,,0.00,,2013-09-05 12:52:00,
2013-09-05 08:12:00,65.0,59.0,30.12,NW,311,0.0,2.0,80,0.00,,,0.00,,2013-09-05 13:12:00,
2013-09-05 08:21:00,67.0,60.0,30.13,NW,311,1.0,3.0,79,0.00,,,0.00,,2013-09-05 13:21:00,
2013-09-05 08:42:00,68.0,61.0,30.14,SSW,208,0.0,4.0,77,0.00,,,0.00,,2013-09-05 13:42:00,
2013-09-05 08:53:00,70.0,62.0,30.14,SE,138,2.0,4.0,77,0.00,,,0.00,,2013-09-05 13:53:00,
2013-09-05 09:12:00,71.0,63.0,30.14,SE,140,2.0,6.0,76,0.00,,,0.00,,2013-09-05 14:12:00,
2013-09-05 09:22:00,72.0,64.0,30.14,SE,130,3.0,9.0,76,0.00,,,0.00,,2013-09-05 14:22:00,
2013-09-05 09:42:00,72.0,64.0,30.14,SE,132,3.0,8.0,77,0.00,,,0.00,,2013-09-05 14:42:00,
2013-09-05 09:52:00,71.0,65.0,30.14,ESE,123,4.0,11.0,80,0.00,,,0.00,,2013-09-05 14:52:00,
2013-09-05 10:11:00,72.0,65.0,30.15,SE,134,3.0,7.0,80,0.00,,,0.00,,2013-09-05 15:11:00,
2013-09-05 10:22:00,73.0,66.0,30.15,SE,132,1.0,8.0,78,0.00,,,0.00,,2013-09-05 15:22:00,
2013-09-05 10:44:00,75.0,67.0,30.15,SE,138,3.0,6.0,75,0.00,,,0.00,,2013-09-05 15:44:00,
2013-09-05 10:54:00,76.0,67.0,30.15,SE,138,3.0,7.0,73,0.00,,,0.00,,2013-09-05 15:54:00,
2013-09-05 11:13:00,76.0,67.0,30.15,SE,134,2.0,9.0,73,0.00,,,0.00,,2013-09-05 16:13:00,
2013-09-05 11:24:00,77.0,67.0,30.16,SSE,154,4.0,11.0,71,0.00,,,0.00,,2013-09-05 16:24:00,
2013-09-05 11:43:00,77.0,67.0,30.16,SE,127,4.0,9.0,71,0.00,,,0.00,,2013-09-05 16:43:00,
2013-09-05 11:54:00,76.0,66.0,30.16,SSE,153,3.0,10.0,72,0.00,,,0.00,,2013-09-05 16:54:00,
2013-09-05 12:12:00,77.0,68.0,30.16,ESE,116,4.0,9.0,73,0.00,,,0.00,,2013-09-05 17:12:00,
2013-09-05 12:23:00,77.0,68.0,30.17,SE,143,2.0,10.0,73,0.00,,,0.00,,2013-09-05 17:23:00,
2013-09-05 12:34:00,77.0,68.0,30.17,SE,143,2.0,10.0,73,0.00,,,0.00,,2013-09-05 17:34:00,
2013-09-05 12:43:00,77.0,68.0,30.17,SE,143,2.0,10.0,73,0.00,,,0.00,,2013-09-05 17:43:00,
2013-09-05 12:52:00,77.0,67.0,30.16,ESE,121,2.0,8.0,71,0.00,,,0.00,,2013-09-05 17:52:00,
2013-09-05 13:12:00,78.0,68.0,30.16,ESE,110,0.0,10.0,71,0.00,,,0.00,,2013-09-05 18:12:00,
2013-09-05 13:22:00,79.0,68.0,30.16,SE,137,3.0,9.0,70,0.00,,,0.00,,2013-09-05 18:22:00,
2013-09-05 13:52:00,79.0,68.0,30.15,SE,144,1.0,8.0,69,0.00,,,0.00,,2013-09-05 18:52:00,
2013-09-05 14:11:00,80.0,68.0,30.15,SE,138,3.0,8.0,68,0.00,,,0.00,,2013-09-05 19:11:00,
2013-09-05 14:22:00,79.0,68.0,30.14,SSE,148,3.0,8.0,69,0.00,,,0.00,,2013-09-05 19:22:00,
2013-09-05 14:42:00,79.0,68.0,30.14,SE,138,3.0,10.0,69,0.00,,,0.00,,2013-09-05 19:42:00,
2013-09-05 14:52:00,80.0,68.0,30.14,SSE,166,4.0,10.0,68,0.00,,,0.00,,2013-09-05 19:52:00,
2013-09-05 15:11:00,79.0,68.0,30.13,SE,143,4.0,9.0,68,0.00,,,0.00,,2013-09-05 20:11:00,
2013-09-05 15:22:00,79.0,67.0,30.13,SE,138,4.0,10.0,67,0.00,,,0.00,,2013-09-05 20:22:00,
2013-09-05 15:52:00,79.0,66.0,30.12,SE,146,3.0,9.0,64,0.00,,,0.00,,2013-09-05 20:52:00,
2013-09-05 16:12:00,79.0,65.0,30.13,SE,135,4.0,9.0,63,0.00,,,0.00,,2013-09-05 21:12:00,
2013-09-05 16:21:00,79.0,65.0,30.13,SE,126,3.0,10.0,63,0.00,,,0.00,,2013-09-05 21:21:00,
2013-09-05 16:54:00,79.0,65.0,30.12,SE,144,1.0,8.0,63,0.00,,,0.00,,2013-09-05 21:54:00,
2013-09-05 17:13:00,79.0,64.0,30.12,ESE,113,4.0,8.0,61,0.00,,,0.00,,2013-09-05 22:13:00,
2013-09-05 17:24:00,78.0,63.0,30.13,ESE,105,2.0,10.0,60,0.00,,,0.00,,2013-09-05 22:24:00,
2013-09-05 17:53:00,77.0,62.0,30.12,SE,137,2.0,11.0,60,0.00,,,0.00,,2013-09-05 22:53:00,
2013-09-05 18:12:00,77.0,62.0,30.13,ESE,120,5.0,9.0,60,0.00,,,0.00,,2013-09-05 23:12:00,
2013-09-05 18:22:00,77.0,62.0,30.12,SE,130,4.0,8.0,60,0.00,,,0.00,,2013-09-05 23:22:00,
2013-09-05 18:53:00,75.0,62.0,30.12,ESE,123,6.0,12.0,63,0.00,,,0.00,,2013-09-05 23:53:00,
2013-09-05 19:02:00,75.0,62.0,30.12,ESE,123,6.0,12.0,63,0.00,,,0.00,,2013-09-06 00:02:00,
2013-09-05 19:12:00,75.0,62.0,30.12,ESE,123,6.0,12.0,63,0.00,,,0.00,,2013-09-06 00:12:00,
2013-09-05 19:22:00,73.0,60.0,30.12,ESE,121,1.0,8.0,64,0.00,,,0.00,,2013-09-06 00:22:00,
2013-09-05 19:42:00,73.0,61.0,30.12,SE,143,1.0,7.0,66,0.00,,,0.00,,2013-09-06 00:42:00,
2013-09-05 19:52:00,72.0,61.0,30.11,SE,136,1.0,4.0,68,0.00,,,0.00,,2013-09-06 00:52:00,
2013-09-05 20:11:00,71.0,60.0,30.12,ESE,116,2.0,5.0,69,0.00,,,0.00,,2013-09-06 01:11:00,
2013-09-05 20:22:00,70.0,60.0,30.12,SE,135,0.0,3.0,70,0.00,,,0.00,,2013-09-06 01:22:00,
2013-09-05 20:42:00,70.0,60.0,30.13,SE,135,0.0,4.0,70,0.00,,,0.00,,2013-09-06 01:42:00,
2013-09-05 20:52:00,70.0,60.0,30.13,SE,146,0.0,4.0,70,0.00,,,0.00,,2013-09-06 01:52:00,
2013-09-05 21:11:00,69.0,59.0,30.13,SE,134,1.0,4.0,70,0.00,,,0.00,,2013-09-06 02:11:00,
2013-09-05 21:22:00,69.0,59.0,30.14,SE,140,2.0,5.0,71,0.00,,,0.00,,2013-09-06 02:22:00,
2013-09-05 21:42:00,68.0,59.0,30.14,ESE,123,1.0,4.0,72,0.00,,,0.00,,2013-09-06 02:42:00,
2013-09-05 21:52:00,68.0,59.0,30.14,ESE,115,3.0,6.0,72,0.00,,,0.00,,2013-09-06 02:52:00,
2013-09-05 22:11:00,68.0,58.0,30.14,SE,135,3.0,8.0,70,0.00,,,0.00,,2013-09-06 03:11:00,
2013-09-05 22:22:00,67.0,57.0,30.15,SE,146,2.0,8.0,70,0.00,,,0.00,,2013-09-06 03:22:00,
2013-09-05 22:55:00,66.0,55.0,30.15,SE,142,2.0,9.0,67,0.00,,,0.00,,2013-09-06 03:55:00,
2013-09-05 23:14:00,66.0,54.0,30.16,SE,136,4.0,10.0,66,0.00,,,0.00,,2013-09-06 04:14:00,
2013-09-05 23:23:00,65.0,53.0,30.15,ESE,111,2.0,10.0,66,0.00,,,0.00,,2013-09-06 04:23:00,
2013-09-05 23:54:00,64.0,52.0,30.15,ESE,121,2.0,5.0,66,0.00,,,0.00,,2013-09-06 04:54:00,